Location: Lombard
(41.8800°N, 88.0080°W)
Time: 23:41:29
(UTC-05:00)

Tiros 1 - Pass Details

Date: 05 February 2023
Orbit: 628 x 662 km, 48.4° (Epoch: 20 March)

Event Time Altitude Azimuth Distance (km) Brightness Sun altitude
Rises 01:55:50 0° 279° (W) 2,913 - -55.0°
Reaches altitude 10° 01:58:18 10° 288° (WNW) 2,009 - -54.6°
Maximum altitude 02:02:35 37° 356° (N) 992 - -54.0°
Drops below altitude 10° 02:06:55 10° 64° (ENE) 2,027 - -53.3°
Sets 02:09:25 0° 73° (ENE) 2,942 - -53.0°
